Sidney, NE

2:23 PM MST on December 09, 2019 (GMT -0700)
Sidney Municipal

Weather History for KSNY - November, 2019

Change the Weather History Date:

Saturday, November 16, 2019

  Actual Average Record
Temperature  
Mean Temperature 46 °F -  
Max Temperature 61 °F 51 °F 74 °F (1999)
Min Temperature 30 °F 22 °F -4 °F (1955)
Degree Days  
Heating Degree Days 20    
Moisture  
Dew Point 29 °F    
Average Humidity 64    
Maximum Humidity 89    
Minimum Humidity 26    
Precipitation  
Precipitation 0.00 in - - ()
Sea Level Pressure  
Sea Level Pressure 30.06 in    
Wind  
Wind Speed 11 mph ()    
Max Wind Speed 28 mph    
Max Gust Speed 38 mph    
Visibility 9.8 miles    
Events      
Averages and records for this station are not official NWS values.
T = Trace of Precipitation, MM = Missing Value Source: Averaged Metar Reports

Daily Weather History Graph

Daily Weather History Graph

Search for Another Location

Airport or City:

Astronomy

Nov. 16, 2019 Rise Set
Actual Time 6:40 AM MST 4:32 PM MST
Civil Twilight 6:11 AM MST 5:01 PM MST
Nautical Twilight 5:37 AM MST 5:35 PM MST
Astronomical Twilight 5:05 AM MST 6:07 PM MST
Moon 8:06 PM MST (11/16) 10:37 AM MST (11/16)
Length of Visible Light 10h 50m
Length of Day
9h 51m
Waning Gibbous, 82% of the Moon is Illuminated
Nov 16
Waning Gibbous
Nov 19
Last Quarter
Nov 26
New
Dec 3
First Quarter
Dec 11
Full

Hourly Weather History & Observations

Time (MST) Temp. Windchill Dew Point Humidity Pressure Visibility Wind Dir Wind Speed Gust Speed Precip Events Conditions
12:53 AM 33.1 °F 27.7 °F 24.1 °F 70% 29.94 in 10.0 mi West 5.8 mph - N/A   Clear
1:53 AM 34.0 °F 27.2 °F 24.1 °F 67% 29.93 in 10.0 mi West 8.1 mph - N/A   Clear
2:53 AM 35.1 °F 26.4 °F 25.0 °F 67% 29.92 in 10.0 mi NW 12.7 mph - N/A   Clear
3:53 AM 32.0 °F 26.4 °F 24.1 °F 73% 29.94 in 10.0 mi WNW 5.8 mph - N/A   Clear
4:53 AM 34.0 °F 28.0 °F 24.1 °F 67% 29.97 in 10.0 mi WSW 6.9 mph - N/A   Clear
5:53 AM 39.0 °F 34.8 °F 25.0 °F 57% 29.95 in 10.0 mi WNW 5.8 mph - N/A   Clear
6:53 AM 35.1 °F 29.3 °F 24.1 °F 64% 30.00 in 10.0 mi West 6.9 mph - N/A   Clear
7:53 AM 46.0 °F 41.0 °F 26.1 °F 46% 30.00 in 9.0 mi WNW 10.4 mph - N/A   Mostly Cloudy
8:53 AM 54.0 °F - 25.0 °F 33% 29.98 in 9.0 mi WNW 20.7 mph 29.9 mph N/A   Overcast
9:53 AM 57.0 °F - 25.0 °F 29% 29.99 in 9.0 mi WNW 19.6 mph - N/A   Scattered Clouds
10:53 AM 60.1 °F - 28.9 °F 31% 29.95 in 8.0 mi WNW 20.7 mph - N/A   Clear
11:53 AM 61.0 °F - 26.1 °F 26% 29.94 in 10.0 mi NNW 26.5 mph 36.8 mph N/A   Clear
12:53 PM 57.0 °F - 28.0 °F 33% 29.97 in 10.0 mi North 23.0 mph - N/A   Clear
1:53 PM 55.0 °F - 33.1 °F 43% 29.97 in 10.0 mi NNE 19.6 mph 28.8 mph N/A   Clear
3:53 PM 51.1 °F - 35.1 °F 54% 30.06 in 10.0 mi North 15.0 mph - N/A   Partly Cloudy
4:32 PM 43.0 °F 32.9 °F 35.1 °F 74% 30.09 in 10.0 mi NNW 27.6 mph 36.8 mph N/A   Overcast
4:53 PM 41.0 °F 30.9 °F 33.1 °F 73% 30.15 in 10.0 mi NNW 24.2 mph 38.0 mph N/A   Overcast
5:30 PM 39.9 °F 30.5 °F 34.0 °F 79% 30.14 in 10.0 mi NNW 19.6 mph 27.6 mph N/A   Overcast
5:53 PM 39.9 °F 30.0 °F 33.1 °F 77% 30.17 in 10.0 mi NNW 21.9 mph 26.5 mph N/A   Overcast
6:35 PM 39.0 °F 31.4 °F 33.1 °F 79% 30.17 in 10.0 mi NNW 12.7 mph - N/A   Overcast
6:53 PM 39.0 °F 31.8 °F 33.1 °F 79% 30.22 in 10.0 mi NNW 11.5 mph - N/A   Overcast
7:44 PM 36.0 °F 28.0 °F 30.9 °F 82% 30.18 in 10.0 mi NW 11.5 mph - 0.00 in   Mostly Cloudy
7:53 PM 35.1 °F 26.9 °F 30.0 °F 82% 30.19 in 10.0 mi NW 11.5 mph - 0.00 in   Partly Cloudy
8:53 PM 34.0 °F 27.2 °F 30.0 °F 85% 30.20 in 10.0 mi WNW 8.1 mph - N/A   Clear
9:53 PM 34.0 °F 26.6 °F 30.0 °F 85% 30.19 in 10.0 mi WNW 9.2 mph - N/A   Scattered Clouds
10:53 PM 30.9 °F 21.7 °F 28.0 °F 89% 30.19 in 10.0 mi WNW 11.5 mph - N/A   Clear
11:53 PM 30.0 °F 20.5 °F 27.0 °F 88% 30.19 in 10.0 mi WNW 11.5 mph - N/A   Clear